Location: Laura�t
(43.9341°N, 0.2497°E)
Time: 22:46:43
(UTC+00:00)

COSMOS 2428 - Pass Details

Date: 03 March 2021
Orbit: 845 x 858 km, 70.9° (Epoch: 17 April)

Event Time Altitude Azimuth Distance (km) Brightness Sun altitude
Rises 19:15:41 0° 175° (S) 3,389 5.7 -16.2°
Reaches altitude 10° 19:18:21 10° 165° (SSE) 2,459 4.9 -16.6°
Maximum altitude 19:23:16 32° 104° (ESE) 1,429 3.3 -17.5°
Enters shadow 19:24:45 28° 76° (ENE) 1,555 3.6 -17.8°
